FW3614 Weather Reports


Display with metric or nautical units.
time (UTC)temp
F
wind
direction
speed
MPH
gust
MPH
rain 1hr
in
rain 24hr
in
rain mn
in
humidity
%
barometer
mb
20260506232224 80 200 4.0 8.0 0.00 0.00 0.00 68 1013.6
20260506231722 80 200 4.0 8.0 0.00 0.00 0.00 68 1013.6
20260506231220 80 226 5.0 14.0 0.00 0.00 0.00 69 1013.6
20260506230716 80 247 4.0 4.0 0.00 0.00 0.00 69 1013.6
20260506230213 81 237 3.0 15.0 0.00 0.00 0.00 68 1013.7
20260506225710 81 222 4.0 9.0 0.00 0.00 0.00 69 1013.6
20260506225207 81 225 7.0 10.0 0.00 0.00 0.00 67 1013.8
20260506224703 81 213 8.0 16.0 0.00 0.00 0.00 67 1013.8
20260506224201 81 233 4.0 7.0 0.00 0.00 0.00 67 1013.9
20260506223656 81 191 5.0 8.0 0.00 0.00 0.00 67 1013.7
20260506223152 82 236 6.0 10.0 0.00 0.00 0.00 67 1013.9
20260506222650 81 226 9.0 15.0 0.00 0.00 0.00 68 1013.6
20260506222145 82 189 8.0 14.0 0.00 0.00 0.00 69 1014.0
20260506221644 82 264 5.0 8.0 0.00 0.00 0.00 69 1013.8
20260506221141 82 208 6.0 13.0 0.00 0.00 0.00 70 1013.7
20260506220638 82 238 4.0 14.0 0.00 0.00 0.00 70 1013.7
20260506220133 82 247 4.0 14.0 0.00 0.00 0.00 70 1013.4
20260506215630 82 242 4.0 8.0 0.00 0.00 0.00 70 1013.6
20260506215125 82 201 5.0 7.0 0.00 0.00 0.00 70 1013.7
20260506214622 82 231 4.0 11.0 0.00 0.00 0.00 70 1013.6
20260506214120 83 237 3.0 9.0 0.00 0.00 0.00 69 1013.7
20260506213618 83 209 4.0 9.0 0.00 0.00 0.00 69 1013.8
20260506213115 83 215 4.0 9.0 0.00 0.00 0.00 68 1013.7
20260506212612 83 201 6.0 14.0 0.00 0.00 0.00 68 1013.8
20260506212107 83 190 5.0 7.0 0.00 0.00 0.00 67 1013.9
20260506211603 83 229 3.0 8.0 0.00 0.00 0.00 70 1013.8
20260506211100 82 240 3.0 8.0 0.00 0.00 0.00 71 1013.8
20260506210556 82 206 6.0 10.0 0.00 0.00 0.00 71 1014.1
20260506210053 83 236 4.0 11.0 0.00 0.00 0.00 70 1014.0
20260506205550 83 230 4.0 10.0 0.00 0.00 0.00 70 1014.0
20260506205045 83 224 9.0 14.0 0.00 0.00 0.00 70 1013.9
20260506204543 83 184 9.0 13.0 0.00 0.00 0.00 70 1014.0
20260506204040 84 212 3.0 6.0 0.00 0.00 0.00 69 1013.9
20260506203538 84 220 4.0 8.0 0.00 0.00 0.00 68 1013.9
20260506203034 83 206 4.0 9.0 0.00 0.00 0.00 69 1014.0
20260506202532 84 222 7.0 10.0 0.00 0.00 0.00 69 1013.9
20260506202028 84 179 4.0 7.0 0.00 0.00 0.00 69 1014.1
20260506201526 84 199 3.0 8.0 0.00 0.00 0.00 68 1014.1
20260506201022 84 225 4.0 9.0 0.00 0.00 0.00 68 1014.4
20260506200518 84 233 5.0 8.0 0.00 0.00 0.00 68 1014.2
20260506200015 84 214 6.0 8.0 0.00 0.00 0.00 69 1014.3
20260506195512 83 221 4.0 8.0 0.00 0.00 0.00 70 1014.4
20260506195009 83 247 4.0 9.0 0.00 0.00 0.00 70 1014.3
20260506194506 83 219 4.0 9.0 0.00 0.00 0.00 70 1014.8
20260506194002 85 221 4.0 7.0 0.00 0.00 0.00 68 1014.7
20260506193500 84 271 5.0 8.0 0.00 0.00 0.00 68 1014.6
20260506192956 84 272 5.0 10.0 0.00 0.00 0.00 68 1014.9
20260506192454 84 219 4.0 9.0 0.00 0.00 0.00 69 1014.9
20260506191950 85 212 9.0 13.0 0.00 0.00 0.00 67 1015.0
20260506191447 84 240 7.0 10.0 0.00 0.00 0.00 69 1014.8
20260506190943 84 206 4.0 11.0 0.00 0.00 0.00 68 1015.0
20260506190440 84 223 1.0 11.0 0.00 0.00 0.00 69 1015.0
20260506185937 84 205 2.0 9.0 0.00 0.00 0.00 68 1015.0
20260506185434 85 203 4.0 9.0 0.00 0.00 0.00 67 1015.2
20260506184931 85 228 4.0 7.0 0.00 0.00 0.00 65 1015.2
20260506184427 85 247 3.0 7.0 0.00 0.00 0.00 67 1015.4
20260506183925 85 192 4.0 8.0 0.00 0.00 0.00 66 1015.2
20260506183420 84 206 5.0 8.0 0.00 0.00 0.00 67 1015.4
20260506182918 87 212 4.0 8.0 0.00 0.00 0.00 62 1015.4
20260506182415 88 278 1.0 2.0 0.00 0.00 0.00 58 1015.6
20260506181912 90 222 3.0 4.0 0.00 0.00 0.00 59 1015.6
20260506181410 89 151 3.0 4.0 0.00 0.00 0.00 55 1015.5
20260506180907 90 248 1.0 3.0 0.00 0.00 0.00 52 1015.7
20260506180402 89 230 0.0 3.0 0.00 0.00 0.00 52 1015.6
20260506175859 89 350 1.0 2.0 0.00 0.00 0.00 51 1015.5
20260506175356 87 243 0.0 4.0 0.00 0.00 0.00 56 1015.6
20260506174853 88 42 1.0 6.0 0.00 0.00 0.00 53 1015.7
20260506174351 88 289 2.0 4.0 0.00 0.00 0.00 53 1015.7
20260506173848 88 218 4.0 8.0 0.00 0.00 0.00 56 1015.7
20260506173344 89 200 2.0 4.0 0.00 0.00 0.00 54 1015.9
20260506172842 87 323 1.0 6.0 0.00 0.00 0.00 57 1016.1
20260506172338 87 266 2.0 4.0 0.00 0.00 0.00 56 1016.0
20260506171836 87 9 2.0 8.0 0.00 0.00 0.00 57 1016.1
20260506171332 86 272 4.0 6.0 0.00 0.00 0.00 58 1016.3
20260506170825 88 265 4.0 6.0 0.00 0.00 0.00 55 1016.3
20260506170320 87 236 1.0 7.0 0.00 0.00 0.00 58 1016.5
20260506165820 86 249 6.0 13.0 0.00 0.00 0.00 56 1016.4
20260506165317 86 226 0.0 7.0 0.00 0.00 0.00 57 1016.5
20260506164814 86 289 1.0 3.0 0.00 0.00 0.00 58 1016.6
20260506164310 86 256 1.0 4.0 0.00 0.00 0.00 57 1016.8
20260506163808 86 295 2.0 4.0 0.00 0.00 0.00 57 1016.8
20260506163302 86 307 1.0 4.0 0.00 0.00 0.00 59 1016.7
20260506162758 86 290 4.0 7.0 0.00 0.00 0.00 58 1016.7
20260506162256 85 329 4.0 6.0 0.00 0.00 0.00 59 1016.7
20260506161752 86 253 2.0 4.0 0.00 0.00 0.00 59 1016.7
20260506161250 86 336 4.0 8.0 0.00 0.00 0.00 59 1016.9
20260506160747 84 358 2.0 7.0 0.00 0.00 0.00 61 1016.8
20260506160243 84 302 3.0 7.0 0.00 0.00 0.00 60 1016.7
20260506155743 84 237 6.0 8.0 0.00 0.00 0.00 60 1016.7
20260506155239 85 296 3.0 7.0 0.00 0.00 0.00 60 1016.9
20260506153347 83 281 2.0 3.0 0.00 0.00 0.00 63 1016.5
20260506152843 84 199 6.0 9.0 0.00 0.00 0.00 63 1016.6
20260506152341 84 274 2.0 3.0 0.00 0.00 0.00 61 1016.8
20260506151839 83 310 1.0 8.0 0.00 0.00 0.00 63 1016.7
20260506151335 83 235 2.0 8.0 0.00 0.00 0.00 63 1016.8
20260506150833 82 260 1.0 3.0 0.00 0.00 0.00 63 1016.8
20260506150330 82 213 2.0 4.0 0.00 0.00 0.00 65 1016.8
20260506145826 82 274 4.0 6.0 0.00 0.00 0.00 63 1016.6
20260506145323 81 255 2.0 3.0 0.00 0.00 0.00 67 1016.6
20260506144820 81 249 1.0 4.0 0.00 0.00 0.00 67 1016.6
20260506144317 82 234 1.0 3.0 0.00 0.00 0.00 65 1016.6
20260506143816 82 253 1.0 6.0 0.00 0.00 0.00 66 1016.5
20260506143312 82 339 2.0 4.0 0.00 0.00 0.00 67 1016.6
20260506142810 81 261 1.0 2.0 0.00 0.00 0.00 67 1016.5
20260506142308 81 245 2.0 3.0 0.00 0.00 0.00 68 1016.5
20260506141806 81 242 2.0 3.0 0.00 0.00 0.00 67 1016.6
20260506141304 81 297 1.0 3.0 0.00 0.00 0.00 70 1016.7
20260506140801 80 249 1.0 4.0 0.00 0.00 0.00 71 1016.7
20260506140258 79 275 3.0 4.0 0.00 0.00 0.00 72 1016.7
20260506135755 78 297 2.0 6.0 0.00 0.00 0.00 73 1016.6
20260506135251 79 301 3.0 8.0 0.00 0.00 0.00 72 1016.7
20260506134748 79 247 1.0 3.0 0.00 0.00 0.00 73 1016.7
20260506134244 79 290 1.0 2.0 0.00 0.00 0.00 74 1016.7
20260506133742 78 293 7.0 8.0 0.00 0.00 0.00 74 1016.7
20260506133238 78 284 1.0 4.0 0.00 0.00 0.00 76 1016.7
20260506132735 77 280 2.0 2.0 0.00 0.00 0.00 76 1016.7
20260506132232 77 225 0.0 1.0 0.00 0.00 0.00 76 1016.8
20260506131730 76 280 1.0 3.0 0.00 0.00 0.00 78 1016.7
20260506131226 75 249 1.0 4.0 0.00 0.00 0.00 79 1016.4
20260506130723 75 225 2.0 3.0 0.00 0.00 0.00 78 1016.4
20260506130220 75 251 2.0 3.0 0.00 0.00 0.00 79 1016.3
20260506125718 75 278 1.0 2.0 0.00 0.00 0.00 79 1016.6
20260506125216 75 287 2.0 3.0 0.00 0.00 0.00 78 1016.4
20260506124714 74 247 2.0 3.0 0.00 0.00 0.00 79 1016.5
20260506124211 74 228 2.0 4.0 0.00 0.00 0.00 79 1016.4
20260506123708 73 290 2.0 3.0 0.00 0.00 0.00 80 1016.3
20260506123207 72 284 2.0 2.0 0.00 0.00 0.00 81 1016.4
20260506122703 72 287 4.0 6.0 0.00 0.00 0.00 82 1016.2
20260506122201 71 272 2.0 3.0 0.00 0.00 0.00 83 1016.1
20260506121659 70 290 0.0 1.0 0.00 0.00 0.00 84 1016.2
20260506121155 70 257 0.0 2.0 0.00 0.00 0.00 86 1016.1
20260506120653 69 268 0.0 0.0 0.00 0.00 0.00 87 1016.3
20260506120150 68 267 2.0 2.0 0.00 0.00 0.00 87 1016.0
20260506115648 68 279 1.0 2.0 0.00 0.00 0.00 88 1015.9
20260506115146 67 275 2.0 2.0 0.00 0.00 0.00 89 1015.9
20260506114643 67 264 0.0 0.0 0.00 0.00 0.00 90 1015.9
20260506114141 66 264 0.0 1.0 0.00 0.00 0.00 90 1016.0
20260506113640 66 261 0.0 0.0 0.00 0.00 0.00 91 1015.8
20260506113136 65 240 0.0 0.0 0.00 0.00 0.00 92 1015.9
20260506112632 64 240 0.0 0.0 0.00 0.00 0.00 93 1015.8
20260506112130 64 240 0.0 0.0 0.00 0.00 0.00 93 1015.6
20260506111628 64 240 0.0 0.0 0.00 0.00 0.00 93 1015.6
20260506111125 63 240 0.0 1.0 0.00 0.00 0.00 94 1015.7
20260506110622 63 240 0.0 0.0 0.00 0.00 0.00 94 1015.5
20260506110119 63 240 0.0 0.0 0.00 0.00 0.00 94 1015.9
20260506105616 63 240 0.0 0.0 0.00 0.00 0.00 94 1015.6
20260506105113 63 240 0.0 0.0 0.00 0.00 0.00 94 1015.7
20260506104611 63 239 0.0 0.0 0.00 0.00 0.00 94 1015.3
20260506104108 63 239 0.0 0.0 0.00 0.00 0.00 94 1015.5
20260506103606 63 239 0.0 0.0 0.00 0.00 0.00 94 1015.2
20260506103102 62 239 0.0 0.0 0.00 0.00 0.00 94 1015.3
20260506102601 62 239 0.0 0.0 0.00 0.00 0.00 93 1015.3
20260506102058 63 239 0.0 0.0 0.00 0.00 0.00 93 1015.5
20260506101554 62 239 0.0 0.0 0.00 0.00 0.00 94 1015.3
20260506101051 62 239 0.0 0.0 0.00 0.00 0.00 93 1015.3
20260506100550 62 239 0.0 0.0 0.00 0.00 0.00 93 1015.3
20260506100047 62 239 0.0 0.0 0.00 0.00 0.00 93 1015.2
20260506095546 62 239 0.0 0.0 0.00 0.00 0.00 93 1015.5
20260506095042 62 239 0.0 0.0 0.00 0.00 0.00 93 1015.7
20260506094540 62 239 0.0 0.0 0.00 0.00 0.00 93 1015.1
20260506094038 62 239 0.0 0.0 0.00 0.00 0.00 93 1015.3
20260506093536 62 238 0.0 0.0 0.00 0.00 0.00 92 1015.4
20260506093033 62 238 0.0 0.0 0.00 0.00 0.00 92 1015.4
20260506092531 62 238 0.0 0.0 0.00 0.00 0.00 92 1015.2
20260506092027 62 239 0.0 0.0 0.00 0.00 0.00 92 1015.0
20260506091526 63 238 0.0 0.0 0.00 0.00 0.00 91 1014.9
20260506091022 63 238 0.0 0.0 0.00 0.00 0.00 91 1015.2
20260506090520 63 238 0.0 0.0 0.00 0.00 0.00 91 1015.2
20260506090016 63 238 0.0 1.0 0.00 0.00 0.00 91 1015.2
20260506085513 63 238 0.0 0.0 0.00 0.00 0.00 90 1015.2
20260506085010 63 238 0.0 0.0 0.00 0.00 0.00 90 1015.1
20260506084507 63 238 0.0 0.0 0.00 0.00 0.00 90 1015.1
20260506084002 63 238 0.0 0.0 0.00 0.00 0.00 90 1015.1
20260506083500 63 238 0.0 0.0 0.00 0.00 0.00 90 1015.0
20260506082957 63 238 0.0 0.0 0.00 0.00 0.00 89 1015.0
20260506082454 63 238 0.0 0.0 0.00 0.00 0.00 89 1015.2
20260506081950 63 238 0.0 0.0 0.00 0.00 0.00 89 1015.1
20260506081448 63 238 0.0 0.0 0.00 0.00 0.00 89 1015.3
20260506080945 63 238 0.0 0.0 0.00 0.00 0.00 88 1015.0
20260506080442 63 238 0.0 0.0 0.00 0.00 0.00 88 1015.0
20260506073426 62 234 0.0 0.0 0.00 0.00 0.00 90 1014.7
20260506072923 62 234 0.0 0.0 0.00 0.00 0.00 90 1014.9
20260506072420 62 234 0.0 0.0 0.00 0.00 0.00 89 1015.3
20260506071918 62 234 0.0 0.0 0.00 0.00 0.00 89 1015.2
20260506071416 62 234 0.0 0.0 0.00 0.00 0.00 88 1015.2
20260506070912 63 234 0.0 0.0 0.00 0.00 0.00 88 1015.4
20260506070409 63 234 0.0 0.0 0.00 0.00 0.00 88 1015.3
20260506062347 64 234 0.0 0.0 0.00 0.00 0.00 87 1015.5
20260506061843 64 234 0.0 0.0 0.00 0.00 0.00 87 1015.6
20260506061339 64 234 0.0 0.0 0.00 0.00 0.00 87 1015.6
20260506060838 63 234 0.0 0.0 0.00 0.00 0.00 88 1015.6
20260506060335 63 234 0.0 0.0 0.00 0.00 0.00 89 1015.8
20260506051307 62 234 0.0 0.0 0.00 0.00 0.00 92 1016.2
20260506050805 62 234 0.0 0.0 0.00 0.00 0.00 91 1016.1
20260506050302 62 234 0.0 0.0 0.00 0.00 0.00 91 1016.0
20260506044752 63 234 0.0 0.0 0.00 0.00 0.00 90 1016.2
20260506044250 63 234 0.0 0.0 0.00 0.00 0.00 89 1016.4
20260506043747 63 234 0.0 0.0 0.00 0.00 0.00 89 1016.3
20260506043244 64 234 0.0 0.0 0.00 0.00 0.00 89 1016.2
20260506042743 64 234 0.0 0.0 0.00 0.00 0.00 89 1016.1
20260506042242 64 234 0.0 0.0 0.00 0.00 0.00 88 1016.2
20260506041739 64 234 0.0 0.0 0.00 0.00 0.00 87 1016.5
20260506041236 64 234 0.0 0.0 0.00 0.00 0.00 87 1016.3
20260506040734 65 234 0.0 0.0 0.00 0.00 0.00 87 1016.5
20260506040231 64 234 0.0 0.0 0.00 0.00 0.00 87 1016.3
20260506035727 64 234 0.0 0.0 0.00 0.00 0.00 87 1016.2
20260506035224 65 234 0.0 0.0 0.00 0.00 0.00 86 1016.5
20260506034721 65 234 0.0 0.0 0.00 0.00 0.00 85 1016.3
20260506034218 66 234 0.0 0.0 0.00 0.00 0.00 84 1016.4
20260506033716 66 234 0.0 0.0 0.00 0.00 0.00 83 1016.4
20260506033212 67 234 0.0 0.0 0.00 0.00 0.00 82 1016.2
20260506032709 67 234 0.0 0.0 0.00 0.00 0.00 82 1016.4
20260506032206 67 234 0.0 0.0 0.00 0.00 0.00 81 1016.2
20260506031703 68 234 0.0 0.0 0.00 0.00 0.00 81 1016.1
20260506031200 68 234 0.0 0.0 0.00 0.00 0.00 81 1016.0
20260506030659 68 233 0.0 0.0 0.00 0.00 0.00 80 1015.8
20260506030155 68 233 0.0 0.0 0.00 0.00 0.00 80 1015.9
20260506025646 68 233 0.0 1.0 0.00 0.00 0.00 79 1015.6
20260506025142 68 233 0.0 0.0 0.00 0.00 0.00 79 1015.9
20260506024640 69 233 0.0 0.0 0.00 0.00 0.00 79 1015.7
20260506024136 69 233 0.0 0.0 0.00 0.00 0.00 78 1015.8
20260506023633 69 233 0.0 0.0 0.00 0.00 0.00 77 1015.7
20260506023130 70 233 0.0 1.0 0.00 0.00 0.00 76 1015.7
20260506022627 70 232 0.0 1.0 0.00 0.00 0.00 76 1015.6
20260506022125 70 228 1.0 1.0 0.00 0.00 0.00 75 1015.4
20260506021622 70 227 1.0 2.0 0.00 0.00 0.00 75 1015.5
20260506021119 70 229 0.0 1.0 0.00 0.00 0.00 75 1015.6
20260506020616 69 229 1.0 1.0 0.00 0.00 0.00 76 1015.6
20260506020114 69 229 0.0 1.0 0.00 0.00 0.00 75 1015.6
20260506015611 69 226 4.0 4.0 0.00 0.00 0.00 75 1015.4
20260506015108 69 225 0.0 1.0 0.00 0.00 0.00 75 1015.6
20260506014606 69 225 0.0 0.0 0.00 0.00 0.00 74 1015.3
20260506014101 70 225 0.0 1.0 0.00 0.00 0.00 73 1015.5
20260506013559 70 213 1.0 3.0 0.00 0.00 0.00 72 1015.3
20260506013056 70 214 2.0 2.0 0.00 0.00 0.00 72 1015.3
20260506012552 71 221 0.0 1.0 0.00 0.00 0.00 71 1015.4
20260506012049 71 222 1.0 1.0 0.00 0.00 0.00 70 1015.5
20260506011547 71 223 1.0 3.0 0.00 0.00 0.00 70 1015.6
20260506011042 71 202 3.0 4.0 0.00 0.00 0.00 70 1015.4
20260506010536 71 223 0.0 1.0 0.00 0.00 0.00 70 1015.4
20260506010032 71 224 1.0 2.0 0.00 0.00 0.00 69 1015.1
20260506005529 71 231 1.0 4.0 0.00 0.00 0.00 69 1015.0
20260506005025 71 227 0.0 3.0 0.00 0.00 0.00 68 1015.0
20260506004523 72 238 1.0 4.0 0.00 0.00 0.00 68 1015.4
20260506004019 72 232 0.0 2.0 0.00 0.00 0.00 68 1015.2
20260506003515 72 222 1.0 2.0 0.00 0.00 0.00 69 1015.3
20260506003011 72 207 2.0 4.0 0.00 0.00 0.00 69 1015.2
20260506002508 72 225 0.0 1.0 0.00 0.00 0.00 69 1015.1
20260506002003 72 228 1.0 3.0 0.00 0.00 0.00 68 1015.2
20260506001500 72 231 2.0 4.0 0.00 0.00 0.00 68 1015.0
20260506000957 72 217 1.0 2.0 0.00 0.00 0.00 68 1014.8
20260506000455 73 226 1.0 2.0 0.00 0.00 0.00 67 1014.9
20260505235952 73 229 2.0 6.0 0.00 0.00 0.00 67 1015.0
20260505235450 73 225 2.0 6.0 0.00 0.00 0.00 67 1015.1
20260505234946 73 220 2.0 7.0 0.00 0.00 0.00 67 1014.9
20260505234444 73 252 4.0 6.0 0.00 0.00 0.00 67 1015.1
20260505233940 73 228 2.0 8.0 0.00 0.00 0.00 66 1015.0
20260505233438 73 257 5.0 8.0 0.00 0.00 0.00 66 1015.1
20260505232935 73 212 4.0 6.0 0.00 0.00 0.00 67 1014.9